map of GLZ home
GLZ - Airport
Location
City:  Breda, Noord-Brabant (North Brabant), Netherlands
Name:Gilze-Rijen AB
ICAO:EHGR
IATA:GLZ

Details
Type:Airport (Aerodrome, Airfield)
Use:Military
Latitude:5134'03"N (51.567389)
Longitude:455'55"E (4.931833)
Datum:WGS 1984
Elevation:49 ft (15 m)
Variation:1.54E (WMM2015v2 magnetic declination)
0.18 annual change
Runways:2
Longest:9118 × 148 ft (2779 × 45 m), paved

Time
Time Zone:UTC+1 (DST+2)
Local Time:

Weather
METAR:EHGR 041408Z AUTO 20015G26KT 150V240 9999 DZRA BKN023 OVC026 03/00 Q1022 WHT 20015KT 9999 BKN025 OVC030 BECMG FEW007 SCT012 BKN015

Related Locations
Nearby:
Farthest:CHT: 11890 mi / 19135 km
Waitangi [Tuuta], CIT, NZ

Find:

   beyond  
but within

Other Information
Maps:
NOTAMs:
Links:
Sources:

  
  • flag of Netherlands
  • flag of Noord-Brabant (North Brabant)
  

Sectional Chart

Flight Planning
at skyvector.com

Satellite Image

Google Maps Satellite view

 

Copyright © 2004-2019 Karl L. Swartz. All rights reserved.
The Great Circle Mapper name and logo are trademarks of the Great Circle Mapper.
All other trademarks mentioned herein belong to their respective owners.
Please see credits for attibutions and further copyright information.

  Follow gcmap on Facebook Follow gcmap on Twitter GCmap on LinkedIn

hCard Microformat

Geo Microformat